Вернуться в каталог

CZ-6A DEB

АктивенPO
NORAD 60648·DEBRIS·🇨🇳 China

Запущен Aug 6, 2024 с Taiyuan Satellite Launch Center

Loading…

Ближайшие Пролёты (ближайшие 24 часа)

TLE

СвежийSource: Space-Track

Эпоха: Sep 14, 2026, 11:54 UTC

1 60648U 24140AZ  26257.49630156  .00001091  00000-0  19264-3 0  9997
2 60648  89.0754 266.4083 0125676 280.4492  78.2579 14.61701269111901

Отслеживайте CZ-6A DEB в реальном времени с AllMySat

Download on the App Store